Regional Weather Roundup
Issued by NWS

Home | Current Version | Previous Version | Graphics & Text | Print | Product List | Glossary On
Versions: 1 2 3 4 5 6 7 8 9 10 11 12 13 14 15 16 17 18 19 20 21 22 23 24 25 26 27
000
ASUS45 KPSR 201910
RWRAZ

ARIZONA HOURLY REGIONAL WEATHER ROUNDUP
NATIONAL WEATHER SERVICE PHOENIX AZ
1200 PM MST FRI JAN 20 2017

NOTE: FAIR INDICATES FEW OR NO CLOUDS BELOW 12,000 FEET WITH NO
SIGNIFICANT WEATHER AND/OR OBSTRUCTIONS TO VISIBILITY.

AZZ001>003-036-202000-
NORTHWEST ARIZONA

CITY           SKY/WX    TMP DP  RH WIND       PRES   REMARKS
BULLHEAD CITY  CLOUDY    50  45  81 SW7       29.65F
KINGMAN        LGT RAIN  43  37  79 S21G26    29.64F
$$

AZZ004>008-015-016-018-202000-
NORTH CENTRAL ARIZONA

CITY           SKY/WX    TMP DP  RH WIND       PRES   REMARKS
GRAND CANYON   LGT SNOW  29  28  96 S15G25    29.65F FOG     WCI  18
WILLIAMS       MIX PCPN  32  27  80 S20G30    29.65F WCI  20
PRESCOTT       LGT RAIN  37  33  85 S14G22    29.71F WCI  28
FLAGSTAFF      SNOW      29  28  96 SW20G29   29.65F VSB 1/2 WCI  16
PAYSON         LGT RAIN  37  34  87 SW8       29.79F WCI  31
PAGE           CLOUDY    40  29  64 CALM      29.63F
$$

AZZ009>014-017-202000-
NORTHEAST ARIZONA

CITY           SKY/WX    TMP DP  RH WIND       PRES   REMARKS
WINSLOW        CLOUDY    44  30  57 SW18G24   29.70F
SAINT JOHNS    CLOUDY    39  32  76 S5        29.71F
SHOW LOW       LGT RAIN  32  28  86 SW22      29.73F WCI  19
$$

AZZ023-202000-
GREATER PHOENIX AREA

CITY           SKY/WX    TMP DP  RH WIND       PRES   REMARKS
PHOENIX        CLOUDY    51  46  83 SE10      29.78F
BUCKEYE        CLOUDY    54  50  87 E7        29.78F
GLENDALE       CLOUDY    54  52  94 E7        29.80F
LUKE AFB       LGT RAIN  52  52 100 E7        29.75F
DEER VALLEY    LGT RAIN  50  46  86 SE9       29.77F
SCOTTSDALE     LGT RAIN  50  46  86 SE7       29.80F
MESA-FALCON    CLOUDY   N/A N/A N/A SE12      29.77
MESA-GATEWAY   CLOUDY    48  46  93 SE9       29.80F
CHANDLER       CLOUDY    52  48  87 E9        29.80F
$$

AZZ027-028-202000-
SOUTHWEST MARICOPA COUNTY AND PINAL COUNTY

CITY           SKY/WX    TMP DP  RH WIND       PRES   REMARKS
CASA GRANDE    CLOUDY    51  48  89 E12       29.80F
$$

AZZ503-504-507>509-202000-
SOUTHEAST ARIZONA

CITY           SKY/WX    TMP DP  RH WIND       PRES   REMARKS
TUCSON         CLOUDY    56  37  49 S16G26    29.83F
DAVIS-MONTHAN  CLOUDY    55  39  55 S14G25    29.82F
RYAN FIELD     PTSUNNY   55  37  50 S21G29    29.83F
NOGALES        CLOUDY    49  38  65 S13       29.87F
SIERRA VISTA   CLOUDY    49  32  52 S10G21    29.86F
DOUGLAS        CLOUDY    48  39  71 W22G29    29.87F
SAFFORD        PTSUNNY   53  38  56 VRB5      29.77F
$$

AZZ020-021-025-026-031-202000-
SOUTHWEST ARIZONA

CITY           SKY/WX    TMP DP  RH WIND       PRES   REMARKS
YUMA           CLOUDY    60  42  51 S20       29.73F
$$

CAZ031-033-041-043-047-048-061-202000-
SOUTHERN CALIFORNIA

CITY           SKY/WX    TMP DP  RH WIND       PRES   REMARKS
DOWNTOWN L.A.  HVY RAIN  54  52  93 SE8       29.59F FOG
L.A. AIRPORT   HVY RAIN  55  53  93 S12G20    29.58F FOG
SAN DIEGO      RAIN      56  52  86 S22       29.78F
BURBANK        HVY RAIN  50  47  89 E24G30    29.55F FOG
ONTARIO        HVY RAIN  49  49 100 CALM      29.63F FOG
RIVERSIDE      LGT RAIN  52  50  93 SE5       29.64
PALM SPRINGS   PTSUNNY   58  46  64 N6        29.63F
EL CENTRO NAS  CLOUDY    62  42  47 SE14      29.68F
IMPERIAL       CLOUDY    61  44  53 SE6       29.67F
BLYTHE         CLOUDY    57  42  57 S16       29.69F
NEEDLES        CLOUDY    55  43  63 S9        29.64F
$$

NVZ020-UTZ003-202000-
SOUTHERN NEVADA-UTAH

CITY           SKY/WX    TMP DP  RH WIND       PRES   REMARKS
LAS VEGAS      LGT RAIN  47  40  76 SE9       29.54F
SALT LAKE CITY PTSUNNY   37  33  85 S13       29.52F WCI  29
$$

NMZ009-TXZ055-202000-
NEW MEXICO-WEST TEXAS

CITY           SKY/WX    TMP DP  RH WIND       PRES   REMARKS
ALBUQUERQUE    CLOUDY    41  28  60 SW14      29.73F
EL PASO        MOSUNNY   55  25  31 W14G22    29.80F
$$


........................KEY........................
SKY/WX - SKY CONDITION/WEATHER
TMP    - TEMPERATURE IN FAHRENHEIT
DP     - DEW POINT IN FAHRENHEIT
RH     - RELATIVE HUMIDITY IN PERCENT
WIND   - DIRECTION AND SPEED IN MILES PER HOUR (MPH)
VRB    - VARIABLE WIND DIRECTION
PRES   - MEAN SEA LEVEL PRESSURE IN INCHES OF MERCURY
         F - FALLING PRESSURE   R - RISING PRESSURE
         S - STEADY PRESSURE
VSB    - VISIBILITY IN MILES
HX     - HEAT INDEX IN FAHRENHEIT
WCI    - WIND CHILL INDEX IN FAHRENHEIT
TC     - TEMPERATURE IN CELSIUS WHICH IS ALSO KNOWN AS
         TEMPERATURE IN CENTIGRADE
AFB    - AIR FORCE BASE
         LUKE AFB IS LUKE AIR FORCE BASE
         DAVIS-MONTHAN IS DAVIS-MONTHAN AIR FORCE BASE
NAS    - NAVAL AIR STATION
         EL CENTRO NAS IS EL CENTRO NAVAL AIR STATION
N/A    - NOT AVAILABLE





USA.gov is the U.S. government's official web portal to all federal, state and local government web resources and services.